Location: Hokitika
(42.7170°S, 170.9670°E)
Time: 16:51:08
(UTC+13:00)

BREEZE-M DEB (TANK) - Pass Details

Date: 24 January 2019
Orbit: 294 x 16782 km, 49.4° (Epoch: 19 February)

Event Time Altitude Azimuth Distance (km) Brightness Sun altitude
Rises 21:22:31 0° 311° (NW) 11,974 9.8 -3.1°
Reaches altitude 10° 21:35:01 10° 311° (NW) 8,067 8.9 -5.1°
Maximum altitude 21:53:07 73° 30° (NNE) 1,293 4.5 -7.8°
Drops below altitude 10° 21:57:24 10° 114° (ESE) 2,103 5.5 -8.5°
Sets 21:58:45 0° 117° (ESE) 2,696 6.1 -8.7°
